Regional Weather Roundup
Issued by NWS Kansas City/Pleasant Hill, MO

Home | Current Version | Previous Version | Graphics & Text | Print | Product List | Glossary Off
Versions: 1 2 3 4 5 6 7 8 9 10 11 12 13 14 15 16 17 18 19 20 21 22 23 24 25 26 27 28 29 30 31 32 33 34 35 36 37 38 39 40 41 42 43 44 45 46 47 48 49 50

000
ASUS43 KEAX 242104
RWREAX

WEATHER ROUNDUP FOR EASTERN KANSAS AND NORTHWEST MISSOURI
NATIONAL WEATHER SERVICE KANSAS CITY/PLEASANT HILL MO
300 PM CST WED DEC 24 2014

KSZ040-057-103>105-MOZ028-029-037-043-242200-
...KANSAS CITY METROPOLITAN AREA...

CITY           SKY/WX    TMP DP  RH WIND       PRES   REMARKS
K.C. INTL      CLOUDY    36  30  79 NW12      29.80S WCI  28
K.C. DOWNTOWN  CLOUDY    39  30  70 W10G20    29.81S WCI  32
LEES SUMMIT    CLOUDY    37  30  75 W12       29.81R WCI  29
OLATHE - IXD   CLOUDY    35  30  82 W15       29.83R WCI  25
OLATHE - OJC   CLOUDY    35  30  82 W12G20    29.82R WCI  27
LAWRENCE       CLOUDY    36  29  75 W9        29.84S WCI  29

$$

MOZ001>008-011>017-020>025-030>033-038>040-044>046-053-054-242200-
...NORTHERN AND CENTRAL MISSOURI...

CITY           SKY/WX    TMP DP  RH WIND       PRES   REMARKS
ST. JOSEPH     CLOUDY    36  30  79 W12       29.81S WCI  28
MOSBY          CLOUDY    37  32  81 NW10      29.80S WCI  30
WARRENSBURG    CLOUDY    36  32  87 W8        29.80R WCI  29
WHITEMAN AFB   CLOUDY    36  33  88 W9        29.79R WCI  29
CLINTON        CLOUDY    37  34  87 W13       29.81S WCI  29
SEDALIA        CLOUDY    38  34  85 W14G21    29.78R WCI  30
WARSAW         NOT AVBL
MARSHALL       CLOUDY    39  37  93 NW13      29.77S WCI  32
CHILLICOTHE      N/A     37  32  82 NW9       29.77S WCI  30
KIRKSVILLE     MIX PCPN  36  33  89 W12G25    29.72R WCI  28

$$

MOZ041-047>049-056>058-063>065-088>090-097-242200-
...EASTERN AND SOUTHERN MISSOURI...

CITY           SKY/WX    TMP DP  RH WIND       PRES   REMARKS
ST. LOUIS INTL LGT RAIN  39  34  82 W14       29.68R WCI  31
SPIRIT OF STL  CLOUDY    38  35  89 W10       29.69R WCI  31
COLUMBIA       CLOUDY    38  33  82 NW12      29.73R WCI  30
JEFFERSON CITY CLOUDY    39  32  76 W12G21    29.75R WCI  32
MEXICO         CLOUDY    39  39 100 NW16      29.71  WCI  30
HANNIBAL       CLOUDY    39  32  75 W9        29.68S WCI  33
ROLLA          CLOUDY    36  33  89 W9        29.72R WCI  29
LEBANON        CLOUDY    37  34  87 W14       29.77R WCI  29
OSAGE BEACH    PTSUNNY   39  32  75 W9        29.77R WCI  33
SPRINGFIELD    CLOUDY    38  32  79 W12G18    29.80S WCI  30
BRANSON        PTSUNNY   36  32  87 W9G17     29.82R WCI  29
NEVADA         CLOUDY    37  32  81 W12       29.85R WCI  30
JOPLIN         CLOUDY    38  31  76 W14       29.86S WCI  30
WEST PLAINS    CLOUDY    39  31  72 NW12G21   29.76R WCI  32

$$

IAZ060-094-KSZ022-034>040-054-083-096-NEZ052-066-093-242200-
...KANSAS...SOUTHEAST NEBRASKA AND IOWA...

CITY           SKY/WX    TMP DP  RH WIND       PRES   REMARKS
TOPEKA         CLOUDY    37  30  75 W10       29.85S WCI  30
MANHATTAN      CLOUDY    34  29  82 SW12      29.85F WCI  25
EMPORIA        CLOUDY    34  29  82 W10       29.86F WCI  26
CHANUTE        CLOUDY    37  31  78 W13       29.88S WCI  29
WICHITA        MOSUNNY   45  28  51 W12       29.86F
OMAHA          CLOUDY    30  26  85 W8        29.79S WCI  22
LINCOLN        CLOUDY    32  26  78 W7        29.79F WCI  26
FALLS CITY     CLOUDY    34  29  82 NW7       29.80S WCI  28
LAMONI         CLOUDY    35  31  85 NW14      29.73F WCI  26
DES MOINES     CLOUDY    35  31  85 NW16      29.71F WCI  25

$$



USA.gov is the U.S. government's official web portal to all federal, state and local government web resources and services.